Regional Weather Roundup
Issued by NWS

Home | Current Version | Previous Version | Graphics & Text | Print | Product List | Glossary On
Versions: 1 2 3 4 5 6 7 8 9 10 11 12 13 14 15 16 17 18 19 20 21 22 23 24 25 26 27 28 29 30 31 32 33 34 35 36 37 38 39 40 41 42 43 44 45 46 47 48 49 50
000
ASUS45 KBOI 220410
RWRID
WEATHER ROUNDUP FOR IDAHO
NATIONAL WEATHER SERVICE BOISE ID
1000 PM MDT SUN SEP 21 2014

NOTE: "FAIR" INDICATES FEW OR NO CLOUDS BELOW 12000 FEET
WITH NO SIGNIFICANT WEATHER AND/OR OBSTRUCTIONS TO VISIBILITY

IDZ012-014-220500-
SOUTHWEST IDAHO


CITY           SKY/WX    TMP DP  RH WIND       PRES   REMARKS
BOISE          LGT RAIN  68  55  63 SE12      30.03S
CALDWELL       CLOUDY    68  52  56 SE17      30.03S
MOUNTAIN HOME  DRIZZLE   62  62 100 E9        30.05S
$$

IDZ016-017-220500-
SOUTHCENTRAL IDAHO


CITY           SKY/WX    TMP DP  RH WIND       PRES   REMARKS
BURLEY         PTCLDY    58  56  93 N3        30.10F
JEROME         CLOUDY    58  55  90 NE9       30.10F
TWIN FALLS     MOCLDY    60  56  86 E7        30.10F
$$

IDZ019>023-220500-
SOUTHEAST IDAHO


CITY           SKY/WX    TMP DP  RH WIND       PRES   REMARKS
IDAHO FALLS    LGT RAIN  59  56  89 SW14      30.16S
POCATELLO      PTCLDY    58  58 100 E5        30.16F
REXBURG        CLOUDY    60  52  74 W8        30.16S
$$

IDZ006-010-011-018-031-032-220500-
CENTRAL IDAHO MOUNTAINS


CITY           SKY/WX    TMP DP  RH WIND       PRES   REMARKS
MCCALL         CLOUDY    63  42  46 NE3       30.10R
HAILEY         LGT RAIN  55  55 100 S6        30.19S
STANLEY          N/A     59  39  47 SE6       30.18R
SALMON         CLOUDY    64  46  52 CALM      30.00R
CHALLIS        CLOUDY    64  43  46 NW3       30.08R
$$

IDZ002-004-006-007-026-220500-
NORTHERN IDAHO


CITY           SKY/WX    TMP DP  RH WIND       PRES   REMARKS
LEWISTON       CLOUDY    78  42  27 S5        29.84S
LOWELL           N/A     64  56  75 N3        29.89R
COEUR D`ALENE  CLEAR     64  46  52 E7        29.90S
MULLAN PASS    NOT AVBL
$$


USA.gov is the U.S. government's official web portal to all federal, state and local government web resources and services.